Weather in Frankfurt am Main

Germany     50°06′21″N   8°40′46″E
temp.,
°C
wind,
m/s
gust,
m/s
humid.,
%
clouds,
%
prec.,
mm/h
press.,
hPa
HPBL,
m
19 april, mon
mon1923:00+8wsw2486100 0.1 1020143
02:00+8sw1293100 0.3 102070
05:00+7sw129595 0.1 101977
08:00+7n129087 0.2 1019179
11:00+11ne016670 0.1 1019676
14:00+14sw124981 0.3 10191515
17:00+12ene236299 0.3 1018687
20:00+11e1168100 0.4 101834
20 april, tue
tue2023:00+8se228172 0.0 101955
02:00+7e11855 0.0 101922
05:00+6ene11889 0.0 101934
08:00+7ne128033 0.0 1019130
11:00+12nne125657 0.0 1018660
14:00+16nne22415 0.0 10171532
17:00+16ne2343100 0.0 10151495
20:00+14nne245526 0.0 1016237
21 april, wed
wed2123:00+10ne137537 0.0 101790
02:00+9nne138111 0.0 101798
05:00+7ne128194 0.0 101785
08:00+9ne1270100 0.0 1018123
11:00+13wnw015370 0.0 1018475
14:00+18nw233697 0.0 10162414
17:00+16n4446100 0.1 10161557
20:00+13nne376365 0.7 1017623
22 april, thu
thu2223:00+9nne49765 0.0 1019529
02:00+7nne377828 0.0 1020376
05:00+4nne377152 0.0 1021317
08:00+4nne3662100 0.0 1022397
11:00+8nne3439100 0.0 1022951
14:00+12n342912 0.0 10211627
17:00+14n363054 0.0 10212262
20:00+10nne48486 0.0 1022959
23 april, fri
fri2323:00+7nne26605 0.0 1025382
02:00+5ne14690 0.0 1025160
05:00+3ne24760 0.0 1026158
08:00+4ne23680 0.0 1027255
11:00+9nne23451 0.0 1027948
14:00+13nne33382 0.0 10251310
17:00+14nne33375 0.0 10241385
20:00+12nne12484 0.0 102354